This is the latest recevied weather packets stored in our database for station/object 9W2RUT-G. If no packets are shown the sender has not sent any weather packets the latest 10 day(s).
| Time | Temp. | Humidity | Pressure | Rain* | Wind** | Luminosity | Snow |
|---|---|---|---|---|---|---|---|
| 1777449635 | 34.44° C | 43% | 1010.5 hPa | - | - | - | - |
| 1777448735 | 34.44° C | 42% | 1010.5 hPa | - | - | - | - |
| 1777447834 | 33.89° C | 43% | 1009.8 hPa | - | - | - | - |
| 1777446934 | 33.89° C | 42% | 1010.1 hPa | - | - | - | - |
| 1777446107 | 33.33° C | 43% | 1010.3 hPa | - | - | - | - |
| 1777446034 | 33.33° C | 43% | 1010.3 hPa | - | - | - | - |
| 1777445134 | 33.33° C | 43% | 1010.5 hPa | - | - | - | - |
| 1777444233 | 33.33° C | 43% | 1010.6 hPa | - | - | - | - |
| 1777443333 | 32.78° C | 43% | 1010.9 hPa | - | - | - | - |
| 1777442432 | 32.78° C | 44% | 1011.5 hPa | - | - | - | - |
| 1777441532 | 32.22° C | 45% | 1011.9 hPa | - | - | - | - |
| 1777440631 | 32.22° C | 44% | 1012.2 hPa | - | - | - | - |
| 1777439730 | 31.67° C | 44% | 1012.5 hPa | - | - | - | - |
| 1777438830 | 31.67° C | 45% | 1012.8 hPa | - | - | - | - |
| 1777437929 | 31.11° C | 45% | 1013 hPa | - | - | - | - |
| 1777437029 | 31.11° C | 46% | 1013.3 hPa | - | - | - | - |
| 1777436129 | 30.56° C | 45% | 1013.5 hPa | - | - | - | - |
| 1777435228 | 28.89° C | 49% | 1013.5 hPa | - | - | - | - |
| 1777434349 | 30° C | 46% | 1013.8 hPa | - | - | - | - |
| 1777433448 | 30° C | 46% | 1013.8 hPa | - | - | - | - |
| 1777432548 | 30° C | 46% | 1013.7 hPa | - | - | - | - |
| 1777431648 | 29.44° C | 46% | 1013.8 hPa | - | - | - | - |
| 1777430747 | 29.44° C | 45% | 1014 hPa | - | - | - | - |
| 1777429846 | 28.89° C | 45% | 1014 hPa | - | - | - | - |
| 1777428946 | 28.89° C | 44% | 1014 hPa | - | - | - | - |
* Rain since midnight (hover to see other rain measurements)
** Current wind speed in m/s (hover to see current wind gust speed)